Regional Weather Roundup
Issued by NWS Cleveland, OH

Home | Current Version | Previous Version | Text Only | Print | Product List | Glossary Off
Versions: 1 2 3 4 5 6 7 8 9 10 11 12 13 14 15 16 17 18 19 20 21 22 23 24 25 26 27 28 29 30 31 32 33 34 35 36 37 38 39 40 41 42 43 44 45 46 47 48 49 50

000
ASUS41 KCLE 222100
RWRCLE
OHIO REGIONAL WEATHER ROUNDUP
NATIONAL WEATHER SERVICE WILMINGTON, OH
400 PM EST SAT NOV 22 2014

NOTE: "FAIR" INDICATES FEW OR NO CLOUDS BELOW 12,000 FEET WITH NO
SIGNIFICANT WEATHER AND/OR OBSTRUCTIONS TO VISIBILITY.

OHZ001>008-015>018-024>027-034-035-043-044-222200-
   NORTHWEST OHIO

CITY           SKY/WX    TMP DP  RH WIND       PRES   REMARKS
DEFIANCE       LGT RAIN  50  43  77 SW13G21   29.99F
FINDLAY        CLOUDY    51  41  68 SW22G29   30.01F
TOLEDO EXPRESS CLOUDY    47  42  83 SW9       29.98F
TOLEDO METCALF CLOUDY    49  41  74 SW14      29.99F
LIMA           CLOUDY    50  40  68 S13       30.03S
$$

OHZ009>014-019>023-028>033-038-089-222200-
   NORTHEAST OHIO

CITY           SKY/WX    TMP DP  RH WIND       PRES   REMARKS
CLE-HOPKINS    CLOUDY    45  37  73 S14       30.07F
CLE-LAKEFRONT  CLOUDY    47  38  71 S17G25    30.03S
CUY CO. ARPT   CLOUDY    46  30  53 SW16      30.04F
LORAIN-ELYRIA  CLOUDY    48  40  73 SW18G30   30.04S
ASHTABULA      LGT RAIN  40  36  86 S10       30.06F
AKRON-CANTON   CLOUDY    42  32  67 SW14      30.10F
WOOSTER        NOT AVBL
MANSFIELD      CLOUDY    47  37  68 S20G29    30.07S
YOUNGSTOWN     CLOUDY    41  34  76 S12G21    30.09F
$$

OHZ042-051>053-060>062-070>072-077>081-222200-
  SOUTHWEST OHIO

CITY           SKY/WX    TMP DP  RH WIND       PRES   REMARKS
CINC-COVINGTON PTSUNNY   59  35  40 S15       30.12S
CINC-LUNKEN    PTSUNNY   59  37  44 S14       30.13S
HAMILTON       PTSUNNY   61  38  42 SW9G22    30.11F
DAYTON         NOT AVBL
WRIGHT-PAT AFB NOT AVBL
DAYTON GENERAL MOSUNNY   57  39  51 S12       30.09F
WILMINGTON     CLOUDY    53  38  56 S13       30.11F
$$

OHZ036-037-039>041-045>050-054>059-063>069-073>076-082>088-222200-
  CENTRAL AND SOUTHEAST OHIO

CITY           SKY/WX    TMP DP  RH WIND       PRES   REMARKS
COLUMBUS       PTSUNNY   50  36  58 S8        30.12F
OSU AIRPORT    PTSUNNY   50  37  61 VRB7      30.10F
BOLTON FIELD   MOSUNNY   50  37  62 S8        30.12F
RICKENBACK AFB NOT AVBL
NEWARK         MOSUNNY   46  35  65 SW3       30.12F
MARION         CLOUDY    45  38  76 S13       30.07F
LANCASTER      CLOUDY    52  36  54 S7        30.13F
ZANESVILLE     CLOUDY    44  33  65 SE6       30.14F
NEW PHILLY     CLOUDY    43  32  65 SE3       30.15F
$$


USA.gov is the U.S. government's official web portal to all federal, state and local government web resources and services.